timestamp,wind_dir_avg,wind_spd_avg,wind_spd_max_dir,wind_spd_gust,battery_voltage,lat,long
2023-04-23 00:04:00+00:00,22.0,8.33,23.0,9.79,12.33,47.59359,-54.27349
2023-04-23 00:14:00+00:00,20.0,8.62,22.0,9.87,12.33,47.59359,-54.27349
2023-04-23 00:24:00+00:00,21.0,9.36,21.0,11.52,12.33,47.59359,-54.27349
2023-04-23 00:34:00+00:00,20.0,9.05,20.0,10.28,12.33,47.59359,-54.27349
2023-04-23 00:44:00+00:00,20.0,8.08,16.0,9.73,12.33,47.59359,-54.27349
2023-04-23 00:54:00+00:00,24.0,9.38,24.0,10.33,12.33,47.59359,-54.27349
2023-04-23 01:04:00+00:00,22.0,9.48,24.0,10.95,12.33,47.59359,-54.27349
2023-04-23 01:14:00+00:00,25.0,8.8,28.0,11.0,12.25,47.59359,-54.27349
2023-04-23 01:24:00+00:00,24.0,10.46,21.0,12.55,12.25,47.59359,-54.27349
2023-04-23 01:34:00+00:00,20.0,10.4,27.0,11.72,12.25,47.59359,-54.27349
2023-04-23 01:44:00+00:00,22.0,9.25,24.0,10.42,12.25,47.59359,-54.27349
2023-04-23 01:54:00+00:00,22.0,10.73,24.0,12.18,12.25,47.59359,-54.27349
2023-04-23 02:04:00+00:00,19.0,10.3,21.0,11.4,12.25,47.59359,-54.27349
2023-04-23 02:14:00+00:00,17.0,11.12,18.0,12.47,12.25,47.59359,-54.27349
2023-04-23 02:24:00+00:00,21.0,10.69,22.0,12.32,12.25,47.59359,-54.27349
2023-04-23 02:34:00+00:00,20.0,10.22,20.0,11.9,12.25,47.59359,-54.27349
2023-04-23 02:44:00+00:00,24.0,9.81,26.0,11.64,12.25,47.59359,-54.27349
2023-04-23 02:54:00+00:00,24.0,10.38,20.0,12.09,12.25,47.59359,-54.27349
2023-04-23 03:04:00+00:00,23.0,12.87,24.0,15.4,12.25,47.59359,-54.27349
2023-04-23 03:14:01+00:00,25.0,11.89,32.0,14.29,12.25,47.59359,-54.27349
2023-04-23 03:24:01+00:00,26.0,11.47,32.0,13.63,12.25,47.59359,-54.27349
2023-04-23 03:34:01+00:00,23.0,11.77,22.0,14.18,12.25,47.59359,-54.27349
2023-04-23 03:44:01+00:00,24.0,13.02,23.0,14.78,12.25,47.59359,-54.27349
2023-04-23 03:54:01+00:00,25.0,11.13,28.0,12.47,12.25,47.59359,-54.27349
2023-04-23 04:04:01+00:00,25.0,10.86,27.0,12.94,12.25,47.59359,-54.27349
2023-04-23 04:14:00+00:00,25.0,10.93,34.0,12.47,12.25,47.59359,-54.27349
2023-04-23 04:24:00+00:00,26.0,9.79,27.0,10.62,12.25,47.59359,-54.27349
2023-04-23 04:34:00+00:00,23.0,11.41,26.0,13.36,12.25,47.59359,-54.27349
2023-04-23 04:44:00+00:00,22.0,8.97,23.0,10.1,12.25,47.59359,-54.27349
2023-04-23 04:54:00+00:00,23.0,9.73,24.0,10.78,12.25,47.59359,-54.27349
2023-04-23 05:04:00+00:00,19.0,10.4,18.0,12.41,12.25,47.59359,-54.27349
2023-04-23 05:14:00+00:00,20.0,10.05,18.0,11.74,12.17,47.59359,-54.27349
2023-04-23 05:24:00+00:00,18.0,9.56,21.0,11.16,12.17,47.59359,-54.27349
2023-04-23 05:34:00+00:00,14.0,9.2,18.0,10.67,12.17,47.59359,-54.27349
2023-04-23 05:44:00+00:00,13.0,9.51,15.0,10.78,12.17,47.59359,-54.27349
2023-04-23 05:54:00+00:00,16.0,9.21,15.0,10.74,12.17,47.59359,-54.27349
2023-04-23 06:04:00+00:00,17.0,9.31,19.0,10.59,12.17,47.59359,-54.27349
2023-04-23 06:14:01+00:00,15.0,9.73,17.0,10.71,12.17,47.59359,-54.27349
2023-04-23 06:24:01+00:00,17.0,10.16,20.0,11.48,12.17,47.59359,-54.27349
2023-04-23 06:34:01+00:00,17.0,9.0,16.0,10.46,12.17,47.59359,-54.27349
2023-04-23 06:44:01+00:00,16.0,9.7,13.0,10.92,12.17,47.59359,-54.27349
2023-04-23 06:54:01+00:00,18.0,9.77,18.0,10.9,12.17,47.59359,-54.27349
2023-04-23 07:04:01+00:00,18.0,10.12,19.0,11.59,12.17,47.59359,-54.27349
2023-04-23 07:14:00+00:00,21.0,10.8,26.0,11.96,12.09,47.59359,-54.27349
2023-04-23 07:24:00+00:00,18.0,10.2,20.0,11.59,12.09,47.59359,-54.27349
2023-04-23 07:34:00+00:00,15.0,10.7,16.0,12.55,12.09,47.59359,-54.27349
2023-04-23 07:44:00+00:00,16.0,11.03,18.0,12.4,12.09,47.59359,-54.27349
2023-04-23 07:54:00+00:00,16.0,10.54,20.0,12.42,12.09,47.59359,-54.27349
2023-04-23 08:04:00+00:00,14.0,11.16,13.0,12.54,12.09,47.59359,-54.27349
2023-04-23 08:14:01+00:00,12.0,11.57,15.0,13.91,12.09,47.59359,-54.27349
2023-04-23 08:24:01+00:00,15.0,10.55,15.0,12.49,12.09,47.59359,-54.27349
2023-04-23 08:34:01+00:00,15.0,11.16,14.0,13.45,12.09,47.59359,-54.27349
2023-04-23 08:44:01+00:00,17.0,10.13,17.0,11.77,12.09,47.59359,-54.27349
2023-04-23 08:54:01+00:00,19.0,10.86,22.0,12.72,12.09,47.59359,-54.27349
2023-04-23 09:04:01+00:00,16.0,11.72,18.0,13.22,12.09,47.59359,-54.27349
2023-04-23 09:14:01+00:00,16.0,11.33,19.0,12.87,12.09,47.59359,-54.27349
2023-04-23 09:24:01+00:00,12.0,11.71,8.0,13.51,12.09,47.59359,-54.27349
2023-04-23 09:34:01+00:00,14.0,11.07,12.0,12.52,12.09,47.59359,-54.27349
2023-04-23 09:44:01+00:00,15.0,10.33,18.0,11.83,12.09,47.59359,-54.27349
2023-04-23 09:54:01+00:00,14.0,10.43,9.0,12.12,12.09,47.59359,-54.27349
2023-04-23 10:04:01+00:00,16.0,9.57,21.0,10.66,12.09,47.59359,-54.27349
2023-04-23 10:14:00+00:00,14.0,9.14,15.0,10.69,12.09,47.59359,-54.27349
2023-04-23 10:24:00+00:00,17.0,7.95,18.0,9.13,12.09,47.59359,-54.27349
2023-04-23 10:34:00+00:00,22.0,8.49,21.0,10.82,12.09,47.59359,-54.27349
2023-04-23 10:44:00+00:00,23.0,10.9,25.0,12.94,12.09,47.59359,-54.27349
2023-04-23 10:54:00+00:00,25.0,10.48,31.0,11.39,12.09,47.59359,-54.27349
2023-04-23 11:04:00+00:00,26.0,10.42,29.0,11.9,12.09,47.59359,-54.27349
2023-04-23 11:14:00+00:00,27.0,10.47,21.0,11.83,12.17,47.59359,-54.27349
2023-04-23 11:24:00+00:00,26.0,10.72,33.0,12.28,12.17,47.59359,-54.27349
2023-04-23 11:34:00+00:00,23.0,10.23,16.0,11.42,12.17,47.59359,-54.27349
2023-04-23 11:44:00+00:00,30.0,10.93,32.0,11.95,12.17,47.59359,-54.27349
2023-04-23 11:54:00+00:00,28.0,10.07,29.0,11.09,12.17,47.59359,-54.27349
2023-04-23 12:04:00+00:00,26.0,10.69,25.0,12.91,12.17,47.59359,-54.27349
2023-04-23 12:14:00+00:00,26.0,10.64,23.0,11.8,12.81,47.59359,-54.27349
2023-04-23 12:24:00+00:00,27.0,11.27,30.0,13.63,12.81,47.59359,-54.27349
2023-04-23 12:34:00+00:00,30.0,10.11,29.0,11.18,12.81,47.59359,-54.27349
2023-04-23 12:44:00+00:00,28.0,10.57,32.0,11.72,12.81,47.59359,-54.27349
2023-04-23 12:54:00+00:00,30.0,9.49,32.0,10.62,12.81,47.59359,-54.27349
2023-04-23 13:04:00+00:00,26.0,9.4,22.0,10.59,12.81,47.59359,-54.27349
2023-04-23 13:14:00+00:00,24.0,9.19,28.0,10.26,13.44,47.59359,-54.27349
2023-04-23 13:24:00+00:00,30.0,9.55,33.0,11.1,13.44,47.59359,-54.27349
2023-04-23 13:34:00+00:00,32.0,8.97,36.0,9.83,13.44,47.59359,-54.27349
2023-04-23 13:44:00+00:00,37.0,7.54,36.0,8.59,13.44,47.59359,-54.27349
2023-04-23 13:54:00+00:00,35.0,8.11,37.0,8.78,13.44,47.59359,-54.27349
2023-04-23 14:04:00+00:00,36.0,7.04,35.0,7.53,13.44,47.59359,-54.27349
2023-04-23 14:14:00+00:00,35.0,7.71,35.0,9.13,13.29,47.59359,-54.27349
2023-04-23 14:24:00+00:00,31.0,8.29,35.0,9.47,13.29,47.59359,-54.27349
2023-04-23 14:34:00+00:00,31.0,8.54,33.0,9.25,13.29,47.59359,-54.27349
2023-04-23 14:44:00+00:00,29.0,8.98,31.0,9.88,13.29,47.59359,-54.27349
2023-04-23 14:54:00+00:00,30.0,9.72,32.0,11.11,13.29,47.59359,-54.27349
2023-04-23 15:04:00+00:00,29.0,9.17,32.0,9.73,13.29,47.59359,-54.27349
2023-04-23 15:14:01+00:00,28.0,9.15,29.0,10.08,13.53,47.59359,-54.27349
2023-04-23 15:24:01+00:00,28.0,9.01,30.0,10.29,13.53,47.59359,-54.27349
2023-04-23 15:34:01+00:00,33.0,8.73,36.0,9.32,13.53,47.59359,-54.27349
2023-04-23 15:44:01+00:00,34.0,7.59,32.0,8.47,13.53,47.59359,-54.27349
2023-04-23 15:54:01+00:00,39.0,7.56,38.0,8.55,13.53,47.59359,-54.27349
2023-04-23 16:04:01+00:00,39.0,7.34,40.0,8.44,13.53,47.59359,-54.27349
2023-04-23 16:14:00+00:00,36.0,8.15,37.0,8.95,13.68,47.59359,-54.27349
2023-04-23 16:24:00+00:00,35.0,9.07,37.0,10.18,13.68,47.59359,-54.27349
2023-04-23 16:34:00+00:00,37.0,8.84,37.0,9.49,13.68,47.59359,-54.27349
2023-04-23 16:44:00+00:00,37.0,9.41,35.0,10.86,13.68,47.59359,-54.27349
2023-04-23 16:54:00+00:00,37.0,8.6,42.0,9.49,13.68,47.59359,-54.27349
2023-04-23 17:04:00+00:00,33.0,11.28,34.0,12.63,13.68,47.59359,-54.27349
2023-04-23 17:14:00+00:00,36.0,12.33,35.0,13.39,13.6,47.59359,-54.27349
2023-04-23 17:24:00+00:00,38.0,11.76,38.0,13.46,13.6,47.59359,-54.27349
2023-04-23 17:34:00+00:00,38.0,10.94,35.0,12.39,13.6,47.59359,-54.27349
2023-04-23 17:44:00+00:00,35.0,10.81,35.0,12.39,13.6,47.59359,-54.27349
2023-04-23 17:54:00+00:00,36.0,11.05,36.0,12.41,13.6,47.59359,-54.27349
2023-04-23 18:04:00+00:00,36.0,10.18,38.0,11.18,13.6,47.59359,-54.27349
2023-04-23 18:14:00+00:00,36.0,9.93,36.0,11.72,13.68,47.59359,-54.27349
2023-04-23 18:24:00+00:00,38.0,10.22,36.0,11.69,13.68,47.59359,-54.27349
2023-04-23 18:34:00+00:00,38.0,11.66,42.0,13.23,13.68,47.59359,-54.27349
2023-04-23 18:44:00+00:00,40.0,12.03,36.0,13.8,13.68,47.59359,-54.27349
2023-04-23 18:54:00+00:00,41.0,12.42,41.0,13.88,13.68,47.59359,-54.27349
2023-04-23 19:04:00+00:00,40.0,12.52,42.0,14.93,13.68,47.59359,-54.27349
2023-04-23 19:14:01+00:00,37.0,12.14,36.0,13.68,13.68,47.59359,-54.27349
2023-04-23 19:24:01+00:00,36.0,13.55,36.0,14.94,13.68,47.59359,-54.27349
2023-04-23 19:34:01+00:00,37.0,13.02,37.0,15.14,13.68,47.59359,-54.27349
2023-04-23 19:44:01+00:00,39.0,13.28,35.0,14.48,13.68,47.59359,-54.27349
2023-04-23 19:54:01+00:00,38.0,13.86,36.0,15.82,13.68,47.59359,-54.27349
2023-04-23 20:04:01+00:00,36.0,13.24,39.0,14.95,13.68,47.59359,-54.27349
2023-04-23 20:14:00+00:00,37.0,12.38,42.0,14.11,13.6,47.59359,-54.27349
2023-04-23 20:24:00+00:00,37.0,12.81,38.0,13.84,13.6,47.59359,-54.27349
2023-04-23 20:34:00+00:00,39.0,11.34,37.0,12.73,13.6,47.59359,-54.27349
2023-04-23 20:44:00+00:00,38.0,10.76,37.0,11.66,13.6,47.59359,-54.27349
2023-04-23 20:54:00+00:00,38.0,9.82,36.0,10.84,13.6,47.59359,-54.27349
2023-04-23 21:04:00+00:00,36.0,11.3,34.0,13.0,13.6,47.59359,-54.27349
2023-04-23 21:14:00+00:00,32.0,11.81,31.0,13.67,13.29,47.59359,-54.27349
2023-04-23 21:24:00+00:00,32.0,12.03,37.0,13.53,13.29,47.59359,-54.27349
2023-04-23 21:34:00+00:00,35.0,10.26,37.0,11.4,13.29,47.59359,-54.27349
2023-04-23 21:44:00+00:00,34.0,10.43,38.0,11.82,13.29,47.59359,-54.27349
2023-04-23 21:54:00+00:00,35.0,10.41,37.0,11.21,13.29,47.59359,-54.27349
2023-04-23 22:04:00+00:00,33.0,10.85,34.0,11.96,13.29,47.59359,-54.27349
2023-04-23 22:14:00+00:00,32.0,10.24,33.0,11.41,12.73,47.59359,-54.27349
2023-04-23 22:24:00+00:00,31.0,11.11,30.0,12.36,12.73,47.59359,-54.27349
2023-04-23 22:34:00+00:00,27.0,11.83,27.0,13.61,12.73,47.59359,-54.27349
2023-04-23 22:44:00+00:00,28.0,10.93,33.0,12.35,12.73,47.59359,-54.27349
2023-04-23 22:54:00+00:00,24.0,12.2,21.0,14.68,12.73,47.59359,-54.27349
2023-04-23 23:04:00+00:00,30.0,11.0,28.0,12.16,12.73,47.59359,-54.27349
2023-04-23 23:14:01+00:00,29.0,10.8,24.0,12.41,12.33,47.59359,-54.27349
2023-04-23 23:24:01+00:00,28.0,9.58,29.0,10.69,12.33,47.59359,-54.27349
2023-04-23 23:34:01+00:00,23.0,9.28,20.0,10.95,12.33,47.59359,-54.27349
2023-04-23 23:44:01+00:00,29.0,10.21,33.0,11.57,12.33,47.59359,-54.27349
2023-04-23 23:54:01+00:00,22.0,8.79,25.0,10.25,12.33,47.59359,-54.27349
